Regional Weather Roundup
Issued by NWS

Home | Current Version | Previous Version | Graphics & Text | Print | Product List | Glossary On
Versions: 1 2 3 4 5 6 7 8 9 10 11 12 13 14 15 16 17 18 19 20 21 22 23 24 25 26 27 28 29 30 31 32 33 34 35 36 37 38 39 40 41 42 43 44 45 46 47 48 49 50
000
ASUS45 KCYS 270910
RWRWY

WYOMING REGIONAL WEATHER ROUNDUP
NATIONAL WEATHER SERVICE CHEYENNE WY
300 AM MDT THU AUG 27 2015

NOTE:  "FAIR" INDICATES FEW OR NO CLOUDS BELOW 12,000 FEET
WITH NO SIGNIFICANT WEATHER AND/OR OBSTRUCTIONS TO VISIBILITY.

WYZ001-271000-
YELLOWSTONE NATIONAL PARK

CITY           SKY/WX    TMP DP  RH WIND       PRES   REMARKS
LK YELLOWSTONE   N/A     43  40  89 CALM      30.41S
W YELLOWSTONE  NOT AVBL

$$
WYZ002>013-054>058-071-098>099-271000-
NORTHERN WYOMING

CITY           SKY/WX    TMP DP  RH WIND       PRES   REMARKS
JACKSON        CLOUDY    48  48 100 N3        30.34R VSB 1/2
CODY           FAIR      61  52  72 S6        30.18S
GREYBULL       CLOUDY    64  57  78 SE3       30.14F
WORLAND        LGT RAIN  62  59  90 S9        30.17S
SHERIDAN       FAIR      75  46  35 W21G26    30.06S
BUFFALO        LGT RAIN  71  45  39 NW13      30.12S
GILLETTE       FAIR      75  43  31 NW15      30.04F
HULETT         CLOUDY    66  55  68 S5        30.05R
NEWCASTLE      FAIR      64  54  68 S6        30.07R

$$
WYZ014>020-022>026-101>103-271000-
CENTRAL WYOMING

CITY           SKY/WX    TMP DP  RH WIND       PRES   REMARKS
BIG PINEY      CLOUDY    54  52  93 NW7       30.35F
PINEDALE       CLOUDY    54  54 100 CALM      30.35F
DUBOIS         FAIR      50  46  87 W7        30.33F
LANDER         CLOUDY    60  56  86 CALM      30.22F
RIVERTON       CLOUDY    60  54  80 NW12      30.22F
CASPER         CLOUDY    67  46  47 W10       30.17S
DOUGLAS        MOCLDY    72  47  40 NW17      30.10S

$$
WYZ021-027>030-104>119-271000-
SOUTHERN WYOMING

CITY           SKY/WX    TMP DP  RH WIND       PRES   REMARKS
EVANSTON       CLOUDY    55  54  96 N5        30.35S
KEMMERER       CLOUDY    54  50  87 W5        30.35F
FORT BRIDGER   CLOUDY    57  55  94 N6        30.37S
ROCK SPRINGS   CLOUDY    57  54  89 CALM      30.30S
DIXON          CLOUDY    59  56  88 CALM      30.32F
RAWLINS        LGT RAIN  57  54  89 SW8       30.31R
SARATOGA       CLOUDY    55  54  94 CALM      30.33S
LARAMIE        FAIR      56  48  74 NE8       30.29S
CHEYENNE       FAIR      66  48  52 NW15G24   30.18R
TORRINGTON     FAIR      69  49  48 N5        30.02F
PINE BLUFFS    FAIR      64  46  52 NW16G22   30.11R

$$


USA.gov is the U.S. government's official web portal to all federal, state and local government web resources and services.